User: anonymous   Login
Location: Unspecified
(0.0000°N, 0.0000°E)
Time: 10:32:42
(UTC+00:00)
Language:

Meteor 2-21 - Orbit

View from above orbital plane
View from above orbital plane
View from above satellite
View from above satellite

Ground track
Ground track

The orbit data is extracted from the following two-line orbital elements,

1 22782U 93055A   18021.59436777 +.00000012 +00000-0 -24950-5 0  9992
2 22782 082.5471 210.2549 0022374 175.3202 216.0024 13.83806092231631
Epoch (UTC): 21 January 2018 14:15:53
Eccentricity: 0.0022374
inclination: 82.5471°
perigee height: 934 km
apogee height: 967 km
right ascension of ascending node: 210.2549°
argument of perigee: 175.3202°
revolutions per day: 13.83806092
mean anomaly at epoch: 216.0024°
orbit number at epoch: 23163

The dashed part of the orbit path shows where the satellite is in the earth's shadow,  

DLR